Tracking 19245 objects as of 14-Aug-2018
HD Live streaming from Space Station
objects crossing your sky now

BLOCK DM-SL R/B

Track BLOCK DM-SL R/B now!


NORAD ID: 36107
Int'l Code: 2009-067B
Perigee: 9,839.1 km
Apogee: 35,908.6 km
Inclination: 10.1 °
Period: 829.5 minutes
Semi major axis: 29244 km
RCS: 12.5893 m2 (large)
Launch date: November 30, 2009
Source: Commonwealth of Independent States (former USSR) (CIS)
Launch site: TYURATAM MISSILE AND SPACE COMPLEX (TTMTR)

Note: This is a ROCKET BODY
aabbcc
Your satellite tracking list
Your tracking list is empty




NASA's NSSDC Master Catalog

Two Line Element Set (TLE):
1 36107U 09067B   18225.77201601 -.00000082 +00000-0 +00000-0 0  9992
2 36107 010.1379 154.3696 4457105 107.6912 186.4507 01.73591280055182
Source of the keplerian elements: AFSPC